N7301G KMLI-KMLI

Flight info

Callsign N7301G
Flight time 0h 2m
Altitude 3000
Route TEST FLIGHT
Aircraft PA22/L-G/C

Departure

Time 2026-04-15 06:24
Airport Quad City International Airport (KMLI)

Arrival

Time 2026-04-15 06:26
Airport Quad City International Airport (KMLI)
Time Latitude Longitude Altitude Speed Heading
2026-04-15 06:08 41.45175 -90.49388 586 ft 0 kts 359°
2026-04-15 06:13 41.45176 -90.49377 585 ft 4 kts 136°
2026-04-15 06:13 41.45170 -90.49376 585 ft 0 kts 186°
2026-04-15 06:19 41.45163 -90.49376 586 ft 5 kts 177°
2026-04-15 06:20 41.45125 -90.49379 587 ft 5 kts 196°
2026-04-15 06:20 41.45063 -90.49396 588 ft 12 kts 167°
2026-04-15 06:20 41.45032 -90.49284 589 ft 13 kts 91°
2026-04-15 06:20 41.45031 -90.49171 588 ft 11 kts 91°
2026-04-15 06:21 41.45010 -90.49085 587 ft 9 kts 139°
2026-04-15 06:21 41.44960 -90.49067 586 ft 1 kts 180°
2026-04-15 06:21 41.44953 -90.49067 586 ft 6 kts 178°
2026-04-15 06:21 41.44883 -90.49092 587 ft 12 kts 226°
2026-04-15 06:22 41.44861 -90.49231 589 ft 30 kts 267°
2026-04-15 06:22 41.44886 -90.49614 620 ft 45 kts 259°
2026-04-15 06:22 41.44895 -90.50070 694 ft 49 kts 261°
2026-04-15 06:22 41.44904 -90.50532 768 ft 51 kts 261°
2026-04-15 06:23 41.44893 -90.50988 874 ft 48 kts 258°
2026-04-15 06:23 41.44964 -90.51424 975 ft 49 kts 274°
2026-04-15 06:23 41.45260 -90.51753 1041 ft 65 kts 324°
2026-04-15 06:23 41.45732 -90.51743 1146 ft 72 kts
2026-04-15 06:24 41.46204 -90.51415 1228 ft 81 kts 43°
2026-04-15 06:24 41.46473 -90.50788 1351 ft 75 kts 65°
2026-04-15 06:24 41.46711 -90.50134 1375 ft 80 kts 60°
2026-04-15 06:24 41.46944 -90.49458 1434 ft 84 kts 71°
2026-04-15 06:25 41.47201 -90.48766 1515 ft 84 kts 58°
2026-04-15 06:25 41.47484 -90.48089 1569 ft 85 kts 51°
2026-04-15 06:25 41.47802 -90.47423 1580 ft 85 kts 50°
2026-04-15 06:25 41.48145 -90.46809 1599 ft 85 kts 55°
2026-04-15 06:26 41.48193 -90.46043 1597 ft 85 kts 102°
2026-04-15 06:26 41.48018 -90.45361 1584 ft 72 kts 144°
2026-04-15 06:26 41.47686 -90.45107 1559 ft 49 kts 190°
2026-04-15 06:26 41.47348 -90.45043 1397 ft 47 kts 202°
2026-04-15 06:27 41.47019 -90.45124 1279 ft 46 kts 210°
2026-04-15 06:27 41.46741 -90.45268 1223 ft 41 kts 218°
2026-04-15 06:27 41.46483 -90.45515 1151 ft 50 kts 218°
2026-04-15 06:27 41.46210 -90.45774 1180 ft 44 kts 220°
2026-04-15 06:28 41.45949 -90.46005 1130 ft 46 kts 221°
2026-04-15 06:28 41.45706 -90.46267 1101 ft 45 kts 221°
2026-04-15 06:28 41.45445 -90.46554 1067 ft 49 kts 225°
2026-04-15 06:28 41.45178 -90.46873 1082 ft 54 kts 221°
2026-04-15 06:29 41.44951 -90.47279 1065 ft 51 kts 242°
2026-04-15 06:29 41.44894 -90.47629 904 ft 35 kts 250°
2026-04-15 06:29 41.44866 -90.47979 776 ft 42 kts 254°
2026-04-15 06:29 41.44858 -90.48381 719 ft 44 kts 260°
2026-04-15 06:30 41.44874 -90.48779 656 ft 43 kts 262°
2026-04-15 06:30 41.44864 -90.49152 589 ft 32 kts 258°
2026-04-15 06:30 41.44864 -90.49359 590 ft 21 kts 269°
2026-04-15 06:30 41.44869 -90.49606 588 ft 23 kts 275°
2026-04-15 06:31 41.44873 -90.49736 587 ft 12 kts 271°
2026-04-15 06:31 41.44930 -90.49794 587 ft 9 kts
2026-04-15 06:31 41.45009 -90.49784 586 ft 11 kts 32°
2026-04-15 06:31 41.45036 -90.49727 586 ft 13 kts 84°
2026-04-15 06:32 41.45037 -90.49690 587 ft 11 kts 89°